Regional Weather Roundup
Issued by NWS

Home | Current Version | Previous Version | Graphics & Text | Print | Product List | Glossary On
Versions: 1 2 3 4 5 6 7 8 9 10 11 12 13 14 15 16 17 18 19 20 21 22 23 24 25 26 27 28 29 30 31 32 33 34 35 36 37 38 39 40 41 42 43 44 45 46 47 48 49 50
000
ASUS45 KPSR 201300
RWRAZ

PRELIMINARY ARIZONA REGIONAL HOURLY WEATHER ROUNDUP
NATIONAL WEATHER SERVICE PHOENIX AZ
600 AM MST MON OCT 20 2014

NOTE: FAIR INDICATES FEW OR NO CLOUDS BELOW 12,000 FEET WITH NO
SIGNIFICANT WEATHER AND/OR OBSTRUCTIONS TO VISIBILITY.

AZZ001>003-036-201400-
NORTHWEST ARIZONA

CITY           SKY/WX    TMP DP  RH WIND       PRES   REMARKS
KINGMAN        CLEAR     60  43  53 SE12      29.98S
$$

AZZ004>008-015-016-018-201400-
NORTH CENTRAL ARIZONA

CITY           SKY/WX    TMP DP  RH WIND       PRES   REMARKS
GRAND CANYON   CLEAR     36  32  85 CALM      30.18R
PRESCOTT       CLEAR     45  39  79 SW3       30.10R
FLAGSTAFF      CLEAR     34  31  88 CALM      30.19R
PAYSON         CLEAR     52  41  66 NE3       30.12S
$$

AZZ009>014-017-201400-
NORTHEAST ARIZONA

CITY           SKY/WX    TMP DP  RH WIND       PRES   REMARKS
WINSLOW        NOT AVBL
SAINT JOHNS    CLEAR     41  40  96 SW5       30.14R
WINDOW ROCK    CLEAR     34  31  88 CALM      30.22
$$

AZZ023-201400-
GREATER PHOENIX AREA

CITY           SKY/WX    TMP DP  RH WIND       PRES   REMARKS
PHOENIX        CLEAR     67  56  67 W3        29.89R
GLENDALE       CLEAR     63  59  88 CALM      29.90
DEER VALLEY    CLEAR     65  51  60 E3        29.90R
SCOTTSDALE     CLEAR     66  52  60 CALM      29.92R
MESA-FALCON    CLEAR     68  48  49 NE12      29.89
MESA-GATEWAY   MOCLDY    59  52  77 SE5       29.92R
CHANDLER       PTCLDY    64  54  68 E6        29.90
$$

AZZ027-028-201400-
SOUTHWEST MARICOPA COUNTY AND PINAL COUNTY

CITY           SKY/WX    TMP DP  RH WIND       PRES   REMARKS
CASA GRANDE    CLEAR     64  48  55 CALM      29.90S
$$

AZZ503-504-507>509-201400-
SOUTHEAST ARIZONA

CITY           SKY/WX    TMP DP  RH WIND       PRES   REMARKS
TUCSON         CLEAR     64  49  57 SE15      29.96R
RYAN FIELD       N/A     64  52  63 E10       29.95
NOGALES        CLEAR     53  45  74 NE8       30.00R
SAFFORD        CLEAR     54  50  86 SE7       30.03R
$$

AZZ020-021-025-026-031-201400-
SOUTHWEST ARIZONA

CITY           SKY/WX    TMP DP  RH WIND       PRES   REMARKS
YUMA           CLEAR     74  61  63 E7        29.81R
$$

CAZ031-033-041-043-047-048-061-201400-
SOUTHERN CALIFORNIA

CITY           SKY/WX    TMP DP  RH WIND       PRES   REMARKS
DOWNTOWN L.A.  CLOUDY    64  60  87 CALM      29.89R
L.A. AIRPORT   MOCLDY    66  62  87 W5        29.90R
SAN DIEGO      MOCLDY    68  61  78 CALM      29.92R
BURBANK        CLOUDY    61  59  93 CALM      29.91R FOG
ONTARIO        PTCLDY    60  58  92 CALM      29.91R FOG
RIVERSIDE      CLEAR     60  56  86 CALM      29.91R
PALM SPRINGS   CLEAR     71  53  52 W3        29.83R
EL CENTRO NAS  CLEAR     67  51  56 SW5       29.79R
IMPERIAL       CLEAR     68  55  63 SW3       29.79R
BLYTHE         CLEAR     68  48  48 CALM      29.83R
$$

NVZ020-UTZ003-201400-
SOUTHERN NEVADA-UTAH

CITY           SKY/WX    TMP DP  RH WIND       PRES   REMARKS
LAS VEGAS      NOT AVBL
SALT LAKE CITY MOCLDY    50  39  66 SE6       30.04R
$$

NMZ009-TXZ055-201400-
NEW MEXICO-WEST TEXAS

CITY           SKY/WX    TMP DP  RH WIND       PRES   REMARKS
ALBUQUERQUE    PTCLDY    49  42  77 CALM      30.20R
EL PASO        PTCLDY    57  54  89 N12       30.06F
$$


........................KEY........................
SKY/WX - SKY CONDITION/WEATHER
TMP    - TEMPERATURE IN FAHRENHEIT
DP     - DEW POINT IN FAHRENHEIT
RH     - RELATIVE HUMIDITY IN PERCENT
WIND   - DIRECTION AND SPEED IN MILES PER HOUR (MPH)
VRB    - VARIABLE WIND DIRECTION
PRES   - MEAN SEA LEVEL PRESSURE IN INCHES OF MERCURY
         F - FALLING PRESSURE   R - RISING PRESSURE
         S - STEADY PRESSURE
VSB    - VISIBILITY IN MILES
HX     - HEAT INDEX IN FAHRENHEIT
WCI    - WIND CHILL INDEX IN FAHRENHEIT
TC     - TEMPERATURE IN CELSIUS WHICH IS ALSO KNOWN AS
         TEMPERATURE IN CENTIGRADE
AFB    - AIR FORCE BASE
         LUKE AFB IS LUKE AIR FORCE BASE
         DAVIS-MONTHAN IS DAVIS-MONTHAN AIR FORCE BASE
NAS    - NAVAL AIR STATION
         EL CENTRO NAS IS EL CENTRO NAVAL AIR STATION
N/A    - NOT AVAILABLE



USA.gov is the U.S. government's official web portal to all federal, state and local government web resources and services.